• Join FlightAware (Why Join?)
  • Login
  • US Flag 
05:13AM EDT


 

Airport Tracker/Info


-or-


 

Live Flight TrackerFlight Track Log ✈ DAL6035 ✈ 21-Apr-2013 ✈ KMHT - KLGA

Flight Track Log - Related Links

Times and Time Zones

All times are in EDT time to prevent confusion due to time zone crossing. See the DAL6035 flight status page for this flight to view local times or setup timezone preferences in your user account.

Time Position Orientation Groundspeed Altitude Reporting Facility
EDT Latitude Longitude Course Direction KTS MPH feet Rate Location/Type
01:06PM 42.9667 -71.4500 324° Northwest 167 192 1,800  Level KA90
01:07PM 43.0219 -71.5114 321° Northwest 224 258 5,500 2,700 Climbing Boston Center
01:08PM 42.7359 -71.6678 228° Southwest  Level Estimated
01:08PM 42.9994 -71.5914 249° West 188 216 8,400  Level Boston Center
01:09PM 42.6702 -71.7449 236° Southwest  Level Estimated
01:09PM 42.9519 -71.6544 224° Southwest 204 235 10,900  Level Boston Center
01:10PM 42.6044 -71.8217 231° Southwest  Level Estimated
01:10PM 42.8964 -71.7317 226° Southwest 250 288 13,100  Level Boston Center
01:11PM 42.5840 -71.9362 256° West  Level FlightAware Approximate
01:11PM 42.8447 -71.8003 224° Southwest 280 322 14,800  Level Boston Center
01:12PM 42.7783 -71.8914 225° Southwest 301 346 16,100 600 Climbing Boston Center
01:13PM 42.7161 -71.9739 224° Southwest 334 384 16,100 -60 Level Boston Center
01:14PM 42.6436 -72.0731 225° Southwest 339 390 16,000  Descending Boston Center
01:15PM 42.5628 -72.1808 224° Southwest 344 396 16,100  Climbing Boston Center
01:16PM 42.5044 -72.2628 226° Southwest 339 390 16,100 -60 Level Boston Center
01:17PM 42.4378 -72.3500 224° Southwest 339 390 16,000 -60 Descending Boston Center
01:18PM 42.3711 -72.4400 225° Southwest 339 390 16,000 -300 Level Boston Center
01:19PM 42.3086 -72.5356 229° Southwest 331 381 15,400 -960 Descending Boston Center
01:20PM 42.2419 -72.6392 229° Southwest 337 388 14,100 -660 Descending Boston Center
01:21PM 42.1769 -72.7397 229° Southwest 349 402 14,100 -60 Level Boston Center
01:22PM 42.1225 -72.8292 231° Southwest 355 409 14,000 -60 Descending Boston Center
01:24PM 41.9967 -73.0239 229° Southwest 360 414 14,000  Level Boston Center
01:25PM 41.9272 -73.1322 229° Southwest 355 409 14,000  Level Boston Center
01:26PM 41.8725 -73.2181 229° Southwest 355 409 14,000  Level Boston Center
01:27PM 41.8156 -73.3064 229° Southwest 355 409 14,000 -240 Level Boston Center
01:28PM 41.7525 -73.3861 223° Southwest 355 409 13,600 -780 Descending Boston Center
01:31PM 41.5500 -73.5833 216° Southwest 343 395 11,400 -1,020 Descending New York TRACON
01:32PM 41.4833 -73.6500 217° Southwest 299 344 10,200 -1,320 Descending New York TRACON
01:33PM 41.4167 -73.7167 217° Southwest 274 315 8,900 -1,140 Descending New York TRACON
01:33PM 41.3667 -73.7667 217° Southwest 268 308 8,100 -480 Descending New York TRACON
01:35PM 41.2833 -73.7500 171° South 284 327 8,000 -60 Descending New York TRACON
01:36PM 41.2167 -73.6833 143° Southeast 290 334 8,000 -660 Level New York TRACON
01:37PM 41.1500 -73.6333 151° Southeast 284 327 6,800 -1,380 Descending New York TRACON
01:38PM 41.0833 -73.6333 180° South 276 318 5,300 -1,320 Descending New York TRACON
01:39PM 41.0167 -73.6500 191° South 260 299 4,200 -660 Descending New York TRACON
01:40PM 40.9333 -73.6667 189° South 262 302 4,000 -120 Descending New York TRACON
01:41PM 40.8667 -73.6833 191° South 259 298 4,000  Level New York TRACON
01:42PM 40.8000 -73.7167 201° Southwest 260 299 4,000  Level New York TRACON
01:43PM 40.7833 -73.8000 255° West 248 285 4,000  Level New York TRACON
01:44PM 40.7833 -73.8833 270° West 242 278 4,000  Level New York TRACON
01:45PM 40.7667 -73.9667 255° West 240 276 4,000  Level New York TRACON
01:46PM 40.7333 -74.0167 229° Southwest 191 220 4,000  Level New York TRACON
01:47PM 40.6833 -74.0500 207° Southwest 207 238 4,000 -540 Level New York TRACON
01:49PM 40.7167 -73.9333 69° East 170 196 2,500 -780 Descending New York TRACON